{"data":{"norad_id":64210,"epoch":"2026-05-25T03:17:47.853024Z","epoch_age_seconds":62873,"freshness":"FRESH","line1":"1 64210U 25117H   26145.13735941  .00014961  00000+0  51607-3 0  9992","line2":"2 64210  53.1586  44.2680 0001134  86.5526 273.5605 15.30210066 56236","mean_motion":15.30210066,"eccentricity":0.0001134,"inclination_deg":53.1586,"raan_deg":44.268,"arg_perigee_deg":86.5526,"mean_anomaly_deg":273.5605,"bstar":0.00051607,"rev_number":5623,"period_min":94.104726664372,"perigee_km":474.40784760606,"apogee_km":475.96218103891,"semimajor_km":6853.3220143225,"source":"CELESTRAK","updated_at":"2026-05-25T13:38:20.318208Z"}}